Theta_e
320 320 320 320 319 319 315 313 312 312 312 312 313 313 313 313 313 318 326 331 331 341 354 355 357 355 355 356 352 348 367 365 353 353 352 351 350 352 349 350 350 352 355 350 346
319 319 320 320 319 318 316 312 312 311 311 312 312 313 313 313 320 324 327 328 327 344 358 354 355 353 358 358 349 350 364 354 351 350 351 353 353 351 356 353 354 355 353 350 344
319 318 320 318 319 317 315 312 311 311 311 312 312 313 313 313 332 334 328 326 322 340 357 347 343 342 347 354 355 355 355 350 352 352 350 353 354 355 360 358 354 356 354 350 341
318 318 319 319 317 316 315 313 311 311 312 312 313 312 312 327 340 341 326 326 323 344 358 341 338 345 349 354 347 356 348 350 351 352 351 350 348 355 356 354 353 352 351 350 343
317 318 318 318 316 315 316 316 312 312 312 313 312 312 319 331 333 331 321 323 339 354 357 345 345 343 354 351 349 354 351 348 349 350 350 350 351 351 351 349 352 350 351 350 343
317 317 317 316 316 316 317 317 315 312 312 312 312 312 325 332 343 335 341 348 349 354 354 351 352 344 350 350 348 346 347 350 350 351 352 353 355 356 350 351 353 351 350 349 345
315 317 317 315 316 316 318 318 317 313 312 312 312 321 332 331 346 344 343 347 350 348 347 346 345 347 347 346 344 345 347 347 350 351 353 354 358 357 351 351 352 351 350 349 348
316 316 317 315 317 317 318 318 316 314 312 312 312 326 333 327 333 348 346 348 348 345 344 344 345 345 346 348 342 348 342 345 346 351 355 359 365 356 351 352 353 351 350 349 348
317 317 317 316 317 317 319 317 315 313 312 312 320 330 331 329 332 344 348 348 346 344 344 343 343 346 346 352 348 343 338 343 347 350 353 358 362 357 351 351 353 352 351 349 348
318 321 317 317 316 317 319 317 314 313 313 325 328 328 328 328 329 341 344 344 344 345 345 344 347 348 339 343 342 334 334 336 347 346 349 355 360 357 354 352 353 353 351 350 348
321 319 323 318 315 317 320 323 331 332 326 328 324 329 326 327 339 343 341 341 342 343 344 342 345 343 341 341 333 333 332 334 335 337 347 353 359 357 356 354 355 354 353 352 352
323 319 323 318 317 318 323 333 334 331 334 328 327 329 327 332 337 340 339 342 342 342 341 341 340 340 338 334 333 332 332 337 339 335 340 349 358 357 355 356 354 354 354 354 353
323 320 322 321 319 316 322 326 332 331 333 327 327 327 328 331 332 335 339 339 337 337 335 337 337 337 336 333 332 332 330 330 331 341 341 351 358 359 355 355 354 353 353 352 352
323 319 322 320 316 324 327 332 330 330 334 328 328 329 328 329 328 330 336 335 335 334 332 334 335 335 333 330 330 329 330 330 329 331 334 347 365 350 357 356 355 353 352 351 350
324 320 322 320 324 332 330 329 329 331 336 329 329 329 329 329 330 329 333 333 334 331 331 332 333 331 330 330 330 329 329 329 331 333 334 345 355 360 354 358 355 354 352 351 350
325 321 322 322 319 323 327 328 331 334 334 328 328 327 328 328 328 329 329 330 331 330 332 335 336 331 330 330 330 330 329 330 333 333 335 349 352 356 355 358 356 353 352 351 350
326 323 322 327 330 329 328 332 336 338 330 327 326 327 328 328 328 328 330 331 333 335 334 334 332 331 330 330 331 330 330 332 336 337 340 344 345 348 345 340 353 351 352 351 350
326 324 326 323 328 329 329 334 340 341 332 330 328 328 328 329 329 330 332 333 334 334 334 333 332 330 332 332 333 332 332 336 340 338 340 345 347 351 345 343 349 349 349 350 350
326 330 327 325 322 329 333 337 339 340 332 330 329 328 329 329 330 330 331 332 333 332 332 335 336 333 333 332 333 333 334 335 333 334 337 346 348 348 346 346 349 348 349 348 348
322 331 332 330 329 331 334 333 339 338 333 333 330 330 329 329 328 330 330 331 331 331 332 332 336 335 333 333 332 331 333 332 333 335 338 342 352 354 351 350 347 346 346 346 345
327 338 332 331 331 334 334 334 336 335 333 333 333 336 334 334 330 330 330 331 331 331 331 331 331 334 336 336 336 335 334 333 334 334 339 343 352 345 350 348 349 346 345 346 346
331 338 334 332 332 331 333 333 335 337 333 332 333 333 334 334 332 331 332 332 332 331 331 331 332 334 336 336 334 332 330 331 335 336 334 339 353 340 346 346 350 350 345 346 347
334 334 336 334 333 331 333 332 334 335 333 333 332 332 332 333 335 335 334 334 333 333 333 334 335 333 336 336 337 333 332 332 331 332 336 345 351 340 344 346 347 348 349 354 354
335 335 332 335 332 331 331 333 336 334 333 334 334 334 333 333 333 335 336 334 334 333 338 332 333 332 333 338 337 336 333 331 331 332 333 343 350 345 343 344 346 348 352 353 355
338 334 336 339 334 332 332 334 336 336 334 335 334 334 333 333 333 332 333 333 333 338 332 332 331 331 332 333 332 332 331 331 332 333 333 338 344 347 347 348 348 354 354 354 355
334 335 335 337 334 334 333 334 334 336 335 337 335 335 335 334 335 339 336 334 334 334 333 332 333 332 332 333 332 331 331 330 330 330 331 332 332 335 349 349 353 354 354 355 353
319 324 332 334 334 332 331 331 333 335 335 337 338 339 340 340 340 339 338 337 336 334 334 334 331 333 333 333 334 334 333 333 332 331 330 330 331 337 345 346 348 345 354 355 356
Wind_Speed
18 15 14 13 12 10 9 9 8 10 10 11 8 6 7 8 9 9 10 8 10 7 10 11 13 4 7 9 4 11 4 7 4 3 13 14 7 12 9 12 8 8 17 32 33
19 16 14 12 11 10 9 8 7 8 9 9 7 5 7 8 11 18 15 8 7 12 10 9 1 5 11 15 8 4 2 3 12 1 8 16 3 10 7 6 18 19 28 36 35
19 17 14 12 10 9 7 7 5 6 7 7 5 5 6 6 9 6 16 12 8 17 14 35 29 13 10 7 10 14 2 12 13 9 7 16 5 18 18 11 12 22 26 26 30
20 17 14 11 9 7 6 4 3 4 5 5 3 5 5 3 3 2 7 16 11 18 17 32 25 13 7 15 18 4 7 8 12 4 2 4 10 14 9 10 20 22 25 25 23
20 17 13 11 8 6 4 3 2 4 4 4 3 5 3 8 5 2 9 16 15 16 20 32 22 12 12 10 15 15 10 8 6 5 9 3 14 11 10 6 23 18 27 24 20
21 17 13 9 7 5 4 3 3 4 4 4 3 5 6 11 8 7 12 15 15 16 17 23 22 28 13 18 12 5 3 8 10 7 5 12 7 7 10 12 22 20 22 21 20
21 17 11 7 5 5 4 2 4 4 4 3 4 3 10 8 8 10 13 15 16 16 16 18 10 12 17 9 1 3 10 14 9 6 7 11 8 12 12 12 18 18 16 20 13
22 16 11 6 5 4 4 1 3 3 3 4 5 5 7 7 6 12 12 14 16 13 16 18 16 15 13 22 10 14 12 7 8 8 19 11 6 10 11 12 18 16 17 16 21
23 17 11 6 5 4 3 0 2 3 4 5 4 8 8 8 11 14 15 15 10 14 17 19 14 14 8 11 15 12 2 13 10 9 21 10 13 11 9 10 17 17 15 15 17
28 19 13 7 5 3 0 1 2 4 3 6 14 8 10 12 16 15 15 14 8 12 15 18 14 7 4 8 7 5 4 12 12 8 12 12 15 12 12 11 11 13 17 13 15
33 22 15 8 6 4 6 1 4 5 11 11 13 13 11 18 16 12 14 11 14 16 14 15 14 12 23 21 10 7 7 12 11 5 6 11 14 11 12 12 13 13 14 15 14
35 25 17 9 7 11 6 6 10 10 7 17 17 10 1 10 11 15 16 13 14 14 17 15 12 19 19 7 10 8 9 14 11 6 3 9 16 11 9 11 12 14 14 16 17
36 28 17 9 7 12 16 21 19 12 7 12 10 13 8 12 15 17 16 15 17 17 14 18 10 18 15 11 10 13 10 9 2 13 12 15 13 12 9 8 12 14 16 17 18
37 30 17 5 5 12 11 10 17 6 8 10 11 10 11 11 14 15 17 16 12 15 15 13 14 6 8 11 7 12 6 7 10 12 11 19 7 3 13 10 13 15 15 16 16
38 31 17 13 11 8 7 6 8 4 5 14 10 12 11 13 11 8 18 14 18 15 10 16 10 10 8 10 9 12 9 9 12 12 18 25 11 5 4 10 14 16 17 17 17
38 30 11 5 12 22 15 11 7 6 4 11 9 10 13 12 9 9 11 16 12 17 16 12 16 5 9 7 9 11 11 15 17 13 12 21 14 9 8 19 18 18 19 19 20
37 24 10 9 10 5 7 8 8 10 10 12 13 14 15 13 8 11 13 13 14 13 13 17 15 13 2 13 15 12 15 9 6 3 10 18 10 8 20 14 19 22 20 18 21
34 15 8 23 10 12 11 8 12 14 8 10 14 15 15 13 15 14 12 14 17 19 16 14 11 9 11 11 11 9 10 4 2 9 8 13 7 5 11 15 26 23 23 20 18
27 6 8 12 19 10 7 9 15 13 5 11 13 11 9 12 15 14 17 15 17 12 10 8 5 4 4 6 9 13 8 12 14 19 9 9 11 16 12 32 36 25 25 21 17
18 13 19 14 12 10 8 16 16 24 5 7 10 11 13 14 8 14 15 13 8 3 10 11 8 10 11 9 12 12 12 12 7 4 9 8 6 10 22 13 13 14 15 13 10
5 6 16 12 12 8 11 18 12 4 2 9 8 7 12 10 13 11 7 10 6 4 6 13 14 6 13 4 12 3 9 10 11 10 4 4 7 9 9 20 17 6 13 12 12
7 8 15 14 8 8 13 21 9 20 8 10 14 12 14 10 11 7 5 5 8 5 3 11 13 7 10 11 3 10 10 13 10 7 10 6 4 5 16 13 15 21 12 13 11
6 11 12 14 10 12 18 24 20 7 15 7 12 12 15 9 9 8 5 10 6 3 6 10 7 8 10 13 15 8 3 9 13 12 4 5 3 10 4 19 12 21 7 11 11
5 5 8 8 11 17 18 19 17 12 14 15 11 15 15 10 12 6 9 12 9 2 8 6 15 16 12 14 10 8 2 5 10 11 11 12 11 11 14 19 27 19 11 13 12
5 7 15 6 6 13 15 17 15 13 13 9 14 15 17 12 14 13 14 5 5 9 3 7 16 17 18 7 5 7 12 11 11 13 13 10 17 23 26 24 18 22 18 15 14
7 6 9 15 17 13 9 13 16 18 20 11 11 13 19 15 14 12 19 10 10 13 8 13 15 14 15 12 10 13 7 10 12 13 12 12 11 6 29 25 19 19 19 16 14
17 13 7 10 13 12 12 15 10 12 14 6 16 9 16 13 15 14 15 16 15 6 13 9 12 14 12 8 10 10 9 10 11 11 12 11 11 10 13 12 11 6 15 16 15
Wind_Direction
342 338 330 323 318 312 304 293 279 272 272 276 283 284 286 290 287 274 257 259 196 187 164 177 221 224 232 252 48 11 13 8 34 299 115 127 153 120 112 126 135 149 150 149 158
341 340 330 325 319 311 304 291 284 272 268 272 280 284 287 295 283 255 254 226 204 170 188 191 152 293 246 209 107 147 261 79 65 341 80 102 337 112 34 50 87 88 109 141 157
343 339 331 324 318 311 302 298 284 274 270 273 276 277 283 316 277 210 202 213 202 194 203 70 42 32 329 290 152 170 297 62 70 29 10 105 258 95 126 256 141 126 134 145 158
345 341 335 326 319 307 303 301 280 261 257 258 258 261 276 271 275 123 215 194 200 195 229 76 34 8 322 339 355 3 78 61 79 79 104 83 115 125 124 51 127 139 143 149 166
349 343 337 330 320 310 299 297 261 244 237 239 230 248 284 223 251 123 156 160 179 198 228 116 154 202 130 252 174 230 114 130 114 92 74 109 59 63 54 73 122 135 140 152 164
351 347 340 335 324 322 313 283 245 229 230 225 217 253 252 252 113 153 148 159 175 208 227 193 184 198 218 227 227 99 93 122 142 117 87 97 101 127 77 75 138 137 145 156 166
355 347 341 332 325 326 331 290 235 227 222 215 220 266 258 279 127 150 169 181 203 225 249 273 287 295 282 273 321 175 163 139 143 160 117 93 105 88 103 123 111 123 140 147 155
358 349 338 325 319 328 327 294 218 212 200 205 220 247 276 177 198 167 187 209 233 245 271 277 291 305 288 324 314 293 157 154 125 153 108 355 114 119 127 132 124 134 146 148 167
2 350 337 316 302 310 329 49 190 183 189 209 236 223 231 171 215 202 196 220 232 248 258 272 288 291 350 308 307 248 96 120 137 204 142 148 130 138 126 128 133 147 157 161 177
5 351 333 312 283 290 98 157 167 173 205 236 268 233 217 204 195 204 205 237 243 250 260 254 252 242 307 177 267 350 85 91 125 149 206 114 117 140 134 132 144 146 155 173 181
2 354 334 309 259 218 136 217 210 199 215 227 186 233 141 204 151 199 208 220 245 261 271 289 250 73 272 271 312 301 286 116 120 161 206 134 132 147 148 144 151 163 173 174 179
358 352 337 308 239 205 217 246 315 324 229 228 211 256 132 141 186 205 202 226 239 254 268 261 258 158 234 292 276 281 277 118 128 156 198 136 133 143 166 159 168 169 178 180 174
354 348 338 303 239 219 225 252 303 318 279 173 207 216 199 195 209 194 190 224 252 255 255 269 43 300 294 281 294 281 353 36 351 167 195 113 115 143 168 192 172 178 184 186 177
350 343 335 289 251 236 223 271 245 303 279 149 190 200 172 207 225 205 184 228 222 260 269 272 286 216 282 278 309 300 41 306 254 240 229 168 153 256 160 208 188 186 188 180 174
347 337 324 205 299 277 0 331 325 254 261 156 159 134 173 219 108 170 167 213 255 240 248 260 231 240 280 311 347 293 319 268 259 262 264 194 117 334 157 210 217 208 186 180 182
343 331 312 238 245 255 287 302 262 241 239 155 143 185 200 222 215 133 179 222 235 258 244 254 271 303 288 322 254 258 280 260 252 235 243 80 95 224 227 202 208 211 189 186 177
339 321 252 211 231 336 278 271 238 246 146 143 166 166 201 195 162 159 187 205 227 222 221 217 228 222 213 250 241 224 237 261 257 336 311 136 132 184 223 219 213 194 191 184 176
335 304 283 228 259 282 280 258 255 271 212 161 161 186 201 160 152 185 181 201 226 245 253 237 196 183 187 256 325 302 311 201 242 294 232 82 145 173 138 296 233 195 180 175 181
337 275 236 247 227 257 261 252 275 301 107 154 181 196 197 185 163 188 209 221 213 224 273 41 186 208 224 293 291 304 297 334 290 222 218 111 91 2 337 212 244 180 169 156 177
329 275 243 190 192 220 244 257 246 268 11 307 194 212 188 186 194 194 199 223 260 270 305 286 201 248 170 210 228 261 313 301 299 340 333 104 80 143 255 309 126 143 105 109 136
279 250 144 170 186 229 244 255 273 255 238 282 293 228 244 278 181 235 232 178 205 180 239 302 295 189 254 350 332 271 275 303 337 300 221 196 94 161 105 266 329 24 127 128 122
297 270 148 177 214 235 250 250 209 278 169 264 293 294 312 329 207 231 318 24 131 206 254 246 297 304 226 211 309 285 271 284 279 326 323 343 126 244 234 58 77 281 260 139 118
296 299 171 205 238 241 251 252 269 280 260 251 250 277 273 283 272 330 305 84 111 274 2 317 278 271 340 5 344 286 317 331 301 304 283 5 291 297 54 107 220 241 177 116 117
279 275 219 192 244 266 271 274 276 198 267 297 312 307 306 264 278 267 294 163 158 230 26 314 283 297 285 167 200 306 275 313 314 301 9 83 118 214 195 174 211 236 180 139 136
247 294 12 286 230 251 256 277 299 290 191 241 259 265 278 275 271 252 239 149 166 138 243 253 265 277 282 337 353 301 309 319 310 315 320 140 157 187 201 204 249 182 149 156 148
350 351 338 304 294 296 287 283 285 288 288 297 221 259 270 272 289 347 324 258 209 154 200 248 259 274 294 300 300 288 276 285 289 295 295 302 317 49 159 188 146 151 147 146 161
5 337 291 291 297 288 266 277 293 297 285 324 305 331 305 359 345 327 311 305 313 256 206 207 251 256 264 277 311 296 247 251 269 260 271 283 295 88 123 144 153 159 151 153 131